Skip Page Navigation
NASA JPL Caltech
NASA Logo - Jet Propulsion Laboratory + View the NASA Portal
+ Near-Earth Object (NEO) Program
Search JPL
JPL Home Earth Solar System Stars & Galaxies Technology
JPL Solar System Dynamics
BODIES ORBITS EPHEMERIDES TOOLS PHYSICAL DATA DISCOVERY FAQ SITE MAP
JPL Small-Body Database Browser
Search: [ help ]  
(1990 SM)
Classification: Apollo [NEO, PHA]          SPK-ID: 3002446
Ephemeris | Orbit Diagram | Orbital Elements | Physical Parameters | Close-Approach Data ]

[ hide orbit diagram ]
Orbit Diagram
Note: Make sure you have Java enabled on your browser to see the applet. This applet is provided as a 3D orbit visualization tool. The applet was implemented using 2-body methods, and hence should not be used for determining accurate long-term trajectories (over several years or decades) or planetary encounter circumstances. For accurate long-term ephemerides, please instead use our Horizons system.
Orbit Viewer

Additional Notes: the orbits shown in the applet are color coded. The planets are white lines, and the asteroid/comet is a blue line. The bright white line indicates the portion of the orbit that is above the ecliptic plane, and the darker portion is below the ecliptic plane. Likewise for the asteroid/comet orbit, the light blue indicates the portion above the ecliptic plane, and the dark blue the portion below the ecliptic plane.

Orbit Viewer applet originally written and kindly provided by Osamu Ajiki (AstroArts), and further modified by Ron Baalke (JPL).


Orbital Elements at Epoch 2456400.5 (2013-Apr-18.0) TDB
Reference: JPL 21 (heliocentric ecliptic J2000)
 Element Value Uncertainty (1-sigma)   Units 
e .7649968837550437 5.259e-07  
a 2.104261195121308 1.1707e-07 AU
q .4945079382468434 1.1288e-06 AU
i 11.58191196697463 2.8799e-05 deg
node 136.5191795593375 0.00017384 deg
peri 107.4154968274832 0.00017901 deg
M 167.2041912164093 0.00031746 deg
tp 2455882.663623427206
(2011-Nov-17.16362343)
0.00094006 JED
period 1114.930757476794
3.05
9.3041e-05
2.547e-07
d
yr
n .3228900069226883 2.6945e-08 deg/d
Q 3.714014451995773 2.0662e-07 AU
  Orbit Determination Parameters
   # obs. used (total)      41  
   data-arc span      8474 days (23.20 yr)  
   first obs. used      1987-09-28  
   last obs. used      2010-12-10  
   planetary ephem.      DE405  
   SB-pert. ephem.      SB405-CPV-2  
   condition code      1  
   fit RMS      .75334  
   data source      ORB  
   producer      Otto Matic  
   solution date      2011-Sep-14 19:31:41  

Additional Information
 Earth MOID = .0292279 AU 
 T_jup = 3.275 
[ show covariance matrix ]

Ephemeris | Orbit Diagram | Orbital Elements | Physical Parameters | Close-Approach Data ]

Physical Parameter Table
Parameter Symbol Value Units Sigma Reference Notes
absolute magnitude H 16.154 mag .54249 21 autocmod 2.5a

[ show close-approach data ]
Alternate Designations
 1990 SM = 1987 SB4 
Ephemeris | Orbit Diagram | Orbital Elements | Physical Parameters | Close-Approach Data ]
ABOUT SSD CREDITS/AWARDS PRIVACY/COPYRIGHT GLOSSARY LINKS
FirstGov 2013-Jun-19 06:29 UT
(server date/time)  
NASA Home Page
Site Manager:   Donald K. Yeomans
Webmaster  Alan B. Chamberlin